Hourly Data Report for July 30, 2021

NANAIMO A
BRITISH COLUMBIA
Current Station Operator: NAVCAN

49°03'16.000" N
123°52'12.000" W
28.00 m
1025365
YCD

Download Data

Hourly Data (July 2021)
Hourly Data Report for July 30, 2021
TIME
LST
Temp Definition
°C
Dew Point Definition
°C
Rel Hum Definition
%
Precip. Amount Definition
mm

Wind Dir Definition
10's deg

Wind Spd Definition
km/h
Visibility Definition
km
Stn Press Definition
kPa
Hmdx Definition


Wind Chill Definition


Weather Definition


00:00 17.7 11.3 66 LegendMM 36 2 LegendMM 101.18     LegendNANA
01:00 16.0 12.1 77 LegendMM 1 7 LegendMM 101.22     LegendNANA
02:00 16.1 11.1 72 LegendMM 14 4 LegendMM 101.29     LegendNANA
03:00 15.6 10.8 73 LegendMM 13 2 LegendMM 101.29     LegendNANA
04:00 15.2 11.0 76 LegendMM 25 3 LegendMM 101.30     LegendNANA
05:00 14.9 10.8 77 LegendMM 0 1 LegendMM 101.30     LegendNANA
06:00 19.6 10.8 56 LegendMM 25 6 LegendMM 101.35     LegendNANA
07:00 22.4 11.1 48 LegendMM 28 3 LegendMM 101.36     LegendNANA
08:00 24.3 13.4 50 LegendMM 9 8 LegendMM 101.36 27   LegendNANA
09:00 26.9 15.1 48 LegendMM 3 8 LegendMM 101.34 31   LegendNANA
10:00 28.2 15.1 44 LegendMM 6 12 LegendMM 101.33 32   LegendNANA
11:00 30.1 13.9 37 LegendMM 2 14 LegendMM 101.31 33   LegendNANA
12:00 31.1 14.0 35 LegendMM 1 9 LegendMM 101.27 34   LegendNANA
13:00 32.1 14.0 33 LegendMM 3 7 LegendMM 101.22 35   LegendNANA
14:00 33.1 10.3 24 LegendMM 36 13 LegendMM 101.17 35   LegendNANA
15:00 34.1 9.8 22 LegendMM 2 12 LegendMM 101.13 35   LegendNANA
16:00 34.4 9.0 20 LegendMM 3 13 LegendMM 101.08 35   LegendNANA
17:00 34.4 8.2 19 LegendMM 4 11 LegendMM 101.05 35   LegendNANA
18:00 33.8 9.2 22 LegendMM 36 10 LegendMM 101.01 35   LegendNANA
19:00 31.3 10.9 28 LegendMM 1 9 LegendMM 101.01 33   LegendNANA
20:00 27.3 12.9 41 LegendMM 26 9 LegendMM 101.02 30   LegendNANA
21:00 26.6 10.7 36 LegendMM 27 15 LegendMM 101.03 28   LegendNANA
22:00 22.2 11.7 51 LegendMM 10 1 LegendMM 101.07     LegendNANA
23:00 21.2 10.9 51 LegendMM 18 3 LegendMM 101.09     LegendNANA

Notes on Data Quality.

Legend

  • E = Estimated
  • M = Missing
  • NA = Not Available*
  • [empty] = Indicates an unobserved value
Date modified: